Year,Month,Day,Hour,Minute,Value (Times are PST for temperature in C)
2014,06,26,00,00,17.20
2014,06,26,00,01,17.20
2014,06,26,00,02,17.20
2014,06,26,00,04,17.10
2014,06,26,00,05,17.10
2014,06,26,00,07,17.10
2014,06,26,00,08,17.10
2014,06,26,00,10,17.10
2014,06,26,00,11,17.10
2014,06,26,00,13,17.10
2014,06,26,00,14,17.00
2014,06,26,00,15,17.00
2014,06,26,00,16,17.00
2014,06,26,00,17,17.00
2014,06,26,00,18,17.00
2014,06,26,00,19,16.90
2014,06,26,00,20,16.90
2014,06,26,00,21,16.90
2014,06,26,00,23,16.90
2014,06,26,00,25,16.90
2014,06,26,00,26,16.90
2014,06,26,00,27,16.90
2014,06,26,00,28,16.90
2014,06,26,00,29,16.90
2014,06,26,00,31,16.90
2014,06,26,00,32,16.90
2014,06,26,00,33,16.90
2014,06,26,00,34,16.90
2014,06,26,00,35,16.80
2014,06,26,00,36,16.80
2014,06,26,00,37,16.80
2014,06,26,00,38,16.80
2014,06,26,00,40,16.80
2014,06,26,00,42,16.80
2014,06,26,00,43,16.70
2014,06,26,00,44,16.70
2014,06,26,00,45,16.70
2014,06,26,00,47,16.60
2014,06,26,00,48,16.60
2014,06,26,00,50,16.60
2014,06,26,00,51,16.50
2014,06,26,00,52,16.50
2014,06,26,00,53,16.50
2014,06,26,00,55,16.40
2014,06,26,00,56,16.40
2014,06,26,00,57,16.40
2014,06,26,00,58,16.40
2014,06,26,00,59,16.40
2014,06,26,01,00,16.30
2014,06,26,01,02,16.30
2014,06,26,01,03,16.30
2014,06,26,01,04,16.30
2014,06,26,01,06,16.20
2014,06,26,01,07,16.20
2014,06,26,01,08,16.20
2014,06,26,01,09,16.20
2014,06,26,01,10,16.20
2014,06,26,01,12,16.20
2014,06,26,01,13,16.20
2014,06,26,01,14,16.10
2014,06,26,01,16,16.10
2014,06,26,01,18,16.10
2014,06,26,01,19,16.00
2014,06,26,01,20,16.00
2014,06,26,01,21,15.90
2014,06,26,01,22,15.90
2014,06,26,01,23,15.90
2014,06,26,01,25,15.80
2014,06,26,01,26,15.80
2014,06,26,01,27,15.80
2014,06,26,01,28,15.80
2014,06,26,01,29,15.80
2014,06,26,01,30,15.70
2014,06,26,01,31,15.70
2014,06,26,01,32,15.70
2014,06,26,01,33,15.70
2014,06,26,01,35,15.60
2014,06,26,01,36,15.60
2014,06,26,01,37,15.60
2014,06,26,01,38,15.60
2014,06,26,01,39,15.60
2014,06,26,01,40,15.60
2014,06,26,01,41,15.50
2014,06,26,01,42,15.50
2014,06,26,01,43,15.40
2014,06,26,01,44,15.40
2014,06,26,01,45,15.40
2014,06,26,01,47,15.40
2014,06,26,01,49,15.30
2014,06,26,01,50,15.30
2014,06,26,01,51,15.30
2014,06,26,01,52,15.30
2014,06,26,01,53,15.20
2014,06,26,01,54,15.20
2014,06,26,01,55,15.20
2014,06,26,01,56,15.20
2014,06,26,01,58,15.20
2014,06,26,01,59,15.10
2014,06,26,02,01,15.10
2014,06,26,02,02,15.10
2014,06,26,02,03,15.10
2014,06,26,02,05,15.00
2014,06,26,02,06,14.90
2014,06,26,02,07,14.90
2014,06,26,02,08,14.90
2014,06,26,02,10,14.90
2014,06,26,02,11,14.80
2014,06,26,02,13,14.80
2014,06,26,02,14,14.80
2014,06,26,02,16,14.80
2014,06,26,02,17,14.70
2014,06,26,02,18,14.70
2014,06,26,02,20,14.70
2014,06,26,02,21,14.70
2014,06,26,02,22,14.70
2014,06,26,02,23,14.60
2014,06,26,02,24,14.60
2014,06,26,02,25,14.60
2014,06,26,02,27,14.60
2014,06,26,02,28,14.60
2014,06,26,02,29,14.50
2014,06,26,02,30,14.50
2014,06,26,02,31,14.50
2014,06,26,02,32,14.50
2014,06,26,02,33,14.50
2014,06,26,02,34,14.40
2014,06,26,02,35,14.40
2014,06,26,02,36,14.40
2014,06,26,02,37,14.40
2014,06,26,02,38,14.40
2014,06,26,02,39,14.40
2014,06,26,02,40,14.40
2014,06,26,02,41,14.40
2014,06,26,02,42,14.40
2014,06,26,02,43,14.30
2014,06,26,02,44,14.30
2014,06,26,02,45,14.30
2014,06,26,02,46,14.30
2014,06,26,02,47,14.30
2014,06,26,02,48,14.30
2014,06,26,02,49,14.30
2014,06,26,02,50,14.30
2014,06,26,02,51,14.20
2014,06,26,02,52,14.20
2014,06,26,02,53,14.20
2014,06,26,02,54,14.20
2014,06,26,02,55,14.20
2014,06,26,02,56,14.20
2014,06,26,02,57,14.10
2014,06,26,02,58,14.10
2014,06,26,02,59,14.10
2014,06,26,03,00,14.10
2014,06,26,03,01,14.10
2014,06,26,03,02,14.10
2014,06,26,03,04,14.00
2014,06,26,03,05,14.00
2014,06,26,03,06,13.90
2014,06,26,03,07,13.90
2014,06,26,03,08,13.90
2014,06,26,03,09,13.90
2014,06,26,03,10,13.90
2014,06,26,03,11,13.90
2014,06,26,03,12,13.80
2014,06,26,03,13,13.80
2014,06,26,03,14,13.80
2014,06,26,03,15,13.80
2014,06,26,03,16,13.80
2014,06,26,03,17,13.80
2014,06,26,03,18,13.80
2014,06,26,03,19,13.80
2014,06,26,03,20,13.80
2014,06,26,03,21,13.80
2014,06,26,03,22,13.70
2014,06,26,03,23,13.70
2014,06,26,03,24,13.70
2014,06,26,03,25,13.70
2014,06,26,03,26,13.70
2014,06,26,03,27,13.70
2014,06,26,03,28,13.70
2014,06,26,03,29,13.70
2014,06,26,03,30,13.70
2014,06,26,03,31,13.70
2014,06,26,03,32,13.60
2014,06,26,03,33,13.60
2014,06,26,03,34,13.60
2014,06,26,03,35,13.60
2014,06,26,03,37,13.60
2014,06,26,03,38,13.60
2014,06,26,03,39,13.60
2014,06,26,03,40,13.60
2014,06,26,03,41,13.60
2014,06,26,03,42,13.60
2014,06,26,03,43,13.50
2014,06,26,03,44,13.50
2014,06,26,03,45,13.50
2014,06,26,03,46,13.50
2014,06,26,03,47,13.50
2014,06,26,03,48,13.50
2014,06,26,03,49,13.50
2014,06,26,03,50,13.50
2014,06,26,03,51,13.40
2014,06,26,03,52,13.40
2014,06,26,03,53,13.40
2014,06,26,03,54,13.40
2014,06,26,03,55,13.40
2014,06,26,03,56,13.40
2014,06,26,03,57,13.40
2014,06,26,03,58,13.40
2014,06,26,03,59,13.40
2014,06,26,04,00,13.30
2014,06,26,04,01,13.30
2014,06,26,04,02,13.30
2014,06,26,04,03,13.30
2014,06,26,04,04,13.30
2014,06,26,04,05,13.30
2014,06,26,04,06,13.30
2014,06,26,04,07,13.30
2014,06,26,04,08,13.30
2014,06,26,04,09,13.30
2014,06,26,04,10,13.30
2014,06,26,04,11,13.30
2014,06,26,04,12,13.30
2014,06,26,04,13,13.30
2014,06,26,04,14,13.30
2014,06,26,04,15,13.30
2014,06,26,04,16,13.20
2014,06,26,04,17,13.20
2014,06,26,04,18,13.20
2014,06,26,04,19,13.20
2014,06,26,04,20,13.20
2014,06,26,04,21,13.20
2014,06,26,04,22,13.20
2014,06,26,04,23,13.20
2014,06,26,04,24,13.10
2014,06,26,04,25,13.10
2014,06,26,04,26,13.10
2014,06,26,04,27,13.10
2014,06,26,04,28,13.10
2014,06,26,04,29,13.10
2014,06,26,04,30,13.10
2014,06,26,04,31,13.10
2014,06,26,04,32,13.10
2014,06,26,04,33,13.10
2014,06,26,04,34,13.10
2014,06,26,04,35,13.10
2014,06,26,04,36,13.10
2014,06,26,04,37,13.00
2014,06,26,04,38,13.00
2014,06,26,04,39,13.00
2014,06,26,04,40,13.00
2014,06,26,04,41,12.90
2014,06,26,04,42,12.90
2014,06,26,04,43,12.90
2014,06,26,04,44,12.90
2014,06,26,04,45,12.90
2014,06,26,04,46,12.90
2014,06,26,04,47,12.90
2014,06,26,04,48,12.90
2014,06,26,04,49,12.90
2014,06,26,04,50,12.90
2014,06,26,04,51,12.90
2014,06,26,04,52,12.90
2014,06,26,04,53,12.90
2014,06,26,04,54,12.80
2014,06,26,04,55,12.80
2014,06,26,04,56,12.80
2014,06,26,04,57,12.80
2014,06,26,04,58,12.80
2014,06,26,04,59,12.80
2014,06,26,05,00,12.80
2014,06,26,05,01,12.80
2014,06,26,05,02,12.80
2014,06,26,05,03,12.80
2014,06,26,05,04,12.80
2014,06,26,05,05,12.80
2014,06,26,05,06,12.80
2014,06,26,05,07,12.70
2014,06,26,05,08,12.70
2014,06,26,05,09,12.70
2014,06,26,05,10,12.70
2014,06,26,05,11,12.70
2014,06,26,05,12,12.70
2014,06,26,05,13,12.70
2014,06,26,05,14,12.70
2014,06,26,05,15,12.70
2014,06,26,05,16,12.70
2014,06,26,05,17,12.70
2014,06,26,05,18,12.70
2014,06,26,05,19,12.70
2014,06,26,05,20,12.60
2014,06,26,05,21,12.60
2014,06,26,05,22,12.60
2014,06,26,05,23,12.60
2014,06,26,05,24,12.60
2014,06,26,05,25,12.60
2014,06,26,05,26,12.60
2014,06,26,05,27,12.60
2014,06,26,05,28,12.60
2014,06,26,05,29,12.60
2014,06,26,05,30,12.60
2014,06,26,05,31,12.50
2014,06,26,05,32,12.50
2014,06,26,05,33,12.50
2014,06,26,05,34,12.50
2014,06,26,05,35,12.50
2014,06,26,05,36,12.50
2014,06,26,05,37,12.50
2014,06,26,05,38,12.50
2014,06,26,05,39,12.50
2014,06,26,05,40,12.50
2014,06,26,05,41,12.50
2014,06,26,05,42,12.50
2014,06,26,05,43,12.50
2014,06,26,05,44,12.50
2014,06,26,05,45,12.50
2014,06,26,05,46,12.50
2014,06,26,05,47,12.50
2014,06,26,05,48,12.50
2014,06,26,05,49,12.50
2014,06,26,05,50,12.50
2014,06,26,05,51,12.50
2014,06,26,05,52,12.50
2014,06,26,05,53,12.50
2014,06,26,05,54,12.50
2014,06,26,05,55,12.50
2014,06,26,05,56,12.50
2014,06,26,05,57,12.60
2014,06,26,05,58,12.60
2014,06,26,05,59,12.60
2014,06,26,06,00,12.60
2014,06,26,06,01,12.60
2014,06,26,06,02,12.60
2014,06,26,06,03,12.60
2014,06,26,06,04,12.60
2014,06,26,06,05,12.60
2014,06,26,06,06,12.60
2014,06,26,06,07,12.60
2014,06,26,06,08,12.70
2014,06,26,06,09,12.70
2014,06,26,06,10,12.70
2014,06,26,06,11,12.70
2014,06,26,06,12,12.70
2014,06,26,06,13,12.70
2014,06,26,06,14,12.70
2014,06,26,06,15,12.80
2014,06,26,06,16,12.80
2014,06,26,06,17,12.80
2014,06,26,06,18,12.80
2014,06,26,06,19,12.80
2014,06,26,06,20,12.90
2014,06,26,06,21,12.90
2014,06,26,06,22,12.90
2014,06,26,06,23,12.90
2014,06,26,06,24,12.90
2014,06,26,06,25,13.00
2014,06,26,06,26,13.00
2014,06,26,06,27,13.00
2014,06,26,06,28,13.10
2014,06,26,06,29,13.10
2014,06,26,06,30,13.10
2014,06,26,06,31,13.10
2014,06,26,06,32,13.20
2014,06,26,06,33,13.20
2014,06,26,06,34,13.20
2014,06,26,06,35,13.30
2014,06,26,06,36,13.30
2014,06,26,06,37,13.30
2014,06,26,06,38,13.30
2014,06,26,06,39,13.40
2014,06,26,06,40,13.40
2014,06,26,06,41,13.50
2014,06,26,06,42,13.60
2014,06,26,06,43,13.60
2014,06,26,06,44,13.70
2014,06,26,06,45,13.70
2014,06,26,06,46,13.80
2014,06,26,06,47,13.90
2014,06,26,06,48,14.00
2014,06,26,06,49,14.10
2014,06,26,06,50,14.20
2014,06,26,06,51,14.30
2014,06,26,06,52,14.40
2014,06,26,06,53,14.50
2014,06,26,06,54,14.60
2014,06,26,06,55,14.60
2014,06,26,06,56,14.70
2014,06,26,06,57,14.70
2014,06,26,06,58,14.80
2014,06,26,06,59,14.80
2014,06,26,07,00,14.80
2014,06,26,07,01,14.80
2014,06,26,07,02,14.80
2014,06,26,07,03,14.90
2014,06,26,07,04,14.90
2014,06,26,07,05,14.90
2014,06,26,07,06,15.00
2014,06,26,07,07,15.10
2014,06,26,07,08,15.10
2014,06,26,07,09,15.10
2014,06,26,07,11,15.20
2014,06,26,07,12,15.20
2014,06,26,07,13,15.20
2014,06,26,07,14,15.30
2014,06,26,07,15,15.30
2014,06,26,07,16,15.30
2014,06,26,07,17,15.40
2014,06,26,07,18,15.40
2014,06,26,07,19,15.40
2014,06,26,07,20,15.40
2014,06,26,07,21,15.40
2014,06,26,07,22,15.50
2014,06,26,07,23,15.60
2014,06,26,07,24,15.60
2014,06,26,07,25,15.60
2014,06,26,07,26,15.60
2014,06,26,07,27,15.60
2014,06,26,07,28,15.60
2014,06,26,07,29,15.60
2014,06,26,07,30,15.60
2014,06,26,07,31,15.50
2014,06,26,07,32,15.50
2014,06,26,07,33,15.50
2014,06,26,07,34,15.40
2014,06,26,07,35,15.40
2014,06,26,07,36,15.40
2014,06,26,07,37,15.40
2014,06,26,07,38,15.40
2014,06,26,07,39,15.40
2014,06,26,07,40,15.40
2014,06,26,07,41,15.40
2014,06,26,07,42,15.40
2014,06,26,07,43,15.40
2014,06,26,07,44,15.40
2014,06,26,07,45,15.40
2014,06,26,07,46,15.40
2014,06,26,07,47,15.40
2014,06,26,07,48,15.40
2014,06,26,07,49,15.40
2014,06,26,07,50,15.50
2014,06,26,07,51,15.60
2014,06,26,07,52,15.60
2014,06,26,07,53,15.70
2014,06,26,07,54,15.80
2014,06,26,07,55,15.90
2014,06,26,07,56,15.90
2014,06,26,07,57,16.10
2014,06,26,07,58,16.10
2014,06,26,07,59,16.10
2014,06,26,08,00,16.10
2014,06,26,08,01,16.10
2014,06,26,08,02,16.10
2014,06,26,08,03,16.10
2014,06,26,08,04,16.10
2014,06,26,08,05,16.20
2014,06,26,08,06,16.20
2014,06,26,08,07,16.20
2014,06,26,08,08,16.20
2014,06,26,08,09,16.20
2014,06,26,08,10,16.30
2014,06,26,08,11,16.30
2014,06,26,08,12,16.20
2014,06,26,08,13,16.20
2014,06,26,08,14,16.20
2014,06,26,08,15,16.20
2014,06,26,08,16,16.20
2014,06,26,08,17,16.20
2014,06,26,08,18,16.30
2014,06,26,08,19,16.30
2014,06,26,08,20,16.30
2014,06,26,08,21,16.30
2014,06,26,08,22,16.30
2014,06,26,08,23,16.30
2014,06,26,08,24,16.40
2014,06,26,08,25,16.40
2014,06,26,08,26,16.40
2014,06,26,08,27,16.60
2014,06,26,08,28,16.60
2014,06,26,08,29,16.60
2014,06,26,08,30,16.60
2014,06,26,08,31,16.60
2014,06,26,08,32,16.60
2014,06,26,08,33,16.60
2014,06,26,08,34,16.60
2014,06,26,08,35,16.60
2014,06,26,08,36,16.70
2014,06,26,08,37,16.70
2014,06,26,08,38,16.80
2014,06,26,08,39,16.80
2014,06,26,08,40,16.80
2014,06,26,08,41,16.90
2014,06,26,08,42,16.90
2014,06,26,08,43,17.00
2014,06,26,08,44,17.10
2014,06,26,08,45,17.10
2014,06,26,08,46,17.10
2014,06,26,08,47,17.10
2014,06,26,08,48,17.10
2014,06,26,08,49,17.20
2014,06,26,08,50,17.20
2014,06,26,08,51,17.30
2014,06,26,08,52,17.30
2014,06,26,08,53,17.40
2014,06,26,08,54,17.40
2014,06,26,08,55,17.50
2014,06,26,08,56,17.60
2014,06,26,08,57,17.60
2014,06,26,08,58,17.60
2014,06,26,08,59,17.60
2014,06,26,09,00,17.60
2014,06,26,09,01,17.60
2014,06,26,09,02,17.50
2014,06,26,09,03,17.50
2014,06,26,09,04,17.50
2014,06,26,09,05,17.50
2014,06,26,09,06,17.60
2014,06,26,09,07,17.60
2014,06,26,09,08,17.70
2014,06,26,09,09,17.80
2014,06,26,09,10,17.80
2014,06,26,09,11,17.90
2014,06,26,09,12,18.10
2014,06,26,09,13,18.20
2014,06,26,09,14,18.30
2014,06,26,09,15,18.40
2014,06,26,09,16,18.50
2014,06,26,09,17,18.60
2014,06,26,09,18,18.60
2014,06,26,09,19,18.70
2014,06,26,09,20,18.60
2014,06,26,09,21,18.60
2014,06,26,09,22,18.60
2014,06,26,09,23,18.60
2014,06,26,09,24,18.50
2014,06,26,09,25,18.50
2014,06,26,09,26,18.40
2014,06,26,09,27,18.40
2014,06,26,09,28,18.40
2014,06,26,09,29,18.40
2014,06,26,09,30,18.50
2014,06,26,09,31,18.60
2014,06,26,09,32,18.60
2014,06,26,09,33,18.60
2014,06,26,09,34,18.60
2014,06,26,09,35,18.60
2014,06,26,09,36,18.60
2014,06,26,09,37,18.60
2014,06,26,09,38,18.60
2014,06,26,09,39,18.60
2014,06,26,09,40,18.70
2014,06,26,09,41,18.70
2014,06,26,09,42,18.70
2014,06,26,09,43,18.70
2014,06,26,09,44,18.80
2014,06,26,09,45,18.80
2014,06,26,09,46,18.80
2014,06,26,09,47,18.90
2014,06,26,09,48,18.90
2014,06,26,09,49,18.90
2014,06,26,09,50,18.90
2014,06,26,09,51,19.00
2014,06,26,09,52,19.10
2014,06,26,09,53,19.10
2014,06,26,09,54,19.20
2014,06,26,09,55,19.20
2014,06,26,09,56,19.20
2014,06,26,09,57,19.20
2014,06,26,09,58,19.20
2014,06,26,09,59,19.20
2014,06,26,10,00,19.20
2014,06,26,10,01,19.20
2014,06,26,10,02,19.20
2014,06,26,10,03,19.30
2014,06,26,10,04,19.30
2014,06,26,10,05,19.30
2014,06,26,10,06,19.40
2014,06,26,10,07,19.40
2014,06,26,10,08,19.40
2014,06,26,10,09,19.40
2014,06,26,10,10,19.40
2014,06,26,10,11,19.40
2014,06,26,10,12,19.40
2014,06,26,10,13,19.40
2014,06,26,10,14,19.30
2014,06,26,10,15,19.20
2014,06,26,10,16,19.20
2014,06,26,10,17,19.20
2014,06,26,10,18,19.10
2014,06,26,10,19,19.10
2014,06,26,10,20,19.10
2014,06,26,10,21,19.10
2014,06,26,10,22,19.10
2014,06,26,10,23,19.20
2014,06,26,10,24,19.20
2014,06,26,10,25,19.20
2014,06,26,10,26,19.20
2014,06,26,10,27,19.20
2014,06,26,10,28,19.20
2014,06,26,10,29,19.30
2014,06,26,10,30,19.30
2014,06,26,10,31,19.40
2014,06,26,10,32,19.50
2014,06,26,10,33,19.50
2014,06,26,10,34,19.60
2014,06,26,10,35,19.60
2014,06,26,10,36,19.60
2014,06,26,10,37,19.70
2014,06,26,10,38,19.70
2014,06,26,10,39,19.70
2014,06,26,10,40,19.80
2014,06,26,10,42,19.80
2014,06,26,10,43,19.80
2014,06,26,10,44,19.80
2014,06,26,10,45,19.90
2014,06,26,10,46,20.00
2014,06,26,10,47,20.10
2014,06,26,10,48,20.10
2014,06,26,10,49,20.20
2014,06,26,10,50,20.20
2014,06,26,10,51,20.20
2014,06,26,10,52,20.30
2014,06,26,10,53,20.30
2014,06,26,10,54,20.30
2014,06,26,10,55,20.40
2014,06,26,10,56,20.40
2014,06,26,10,57,20.40
2014,06,26,10,58,20.40
2014,06,26,10,59,20.40
2014,06,26,11,00,20.40
2014,06,26,11,01,20.40
2014,06,26,11,02,20.50
2014,06,26,11,03,20.50
2014,06,26,11,04,20.50
2014,06,26,11,05,20.50
2014,06,26,11,06,20.50
2014,06,26,11,07,20.60
2014,06,26,11,08,20.60
2014,06,26,11,09,20.70
2014,06,26,11,10,20.70
2014,06,26,11,11,20.70
2014,06,26,11,12,20.70
2014,06,26,11,13,20.70
2014,06,26,11,14,20.60
2014,06,26,11,15,20.60
2014,06,26,11,16,20.60
2014,06,26,11,17,20.40
2014,06,26,11,18,20.40
2014,06,26,11,19,20.40
2014,06,26,11,20,20.40
2014,06,26,11,21,20.40
2014,06,26,11,22,20.50
2014,06,26,11,23,20.60
2014,06,26,11,24,20.60
2014,06,26,11,25,20.60
2014,06,26,11,26,20.60
2014,06,26,11,27,20.60
2014,06,26,11,28,20.60
2014,06,26,11,29,20.70
2014,06,26,11,30,20.70
2014,06,26,11,31,20.70
2014,06,26,11,32,20.80
2014,06,26,11,33,20.90
2014,06,26,11,34,20.90
2014,06,26,11,35,21.00
2014,06,26,11,36,21.10
2014,06,26,11,37,21.10
2014,06,26,11,38,21.10
2014,06,26,11,39,21.00
2014,06,26,11,40,21.00
2014,06,26,11,41,21.00
2014,06,26,11,42,21.00
2014,06,26,11,43,21.10
2014,06,26,11,44,21.10
2014,06,26,11,45,21.10
2014,06,26,11,46,21.00
2014,06,26,11,47,21.00
2014,06,26,11,48,21.10
2014,06,26,11,49,21.10
2014,06,26,11,50,21.10
2014,06,26,11,51,21.10
2014,06,26,11,52,21.10
2014,06,26,11,53,21.20
2014,06,26,11,54,21.20
2014,06,26,11,55,21.20
2014,06,26,11,56,21.30
2014,06,26,11,57,21.30
2014,06,26,11,58,21.40
2014,06,26,11,59,21.40
2014,06,26,12,00,21.50
2014,06,26,12,01,21.60
2014,06,26,12,02,21.70
2014,06,26,12,03,21.70
2014,06,26,12,04,21.80
2014,06,26,12,05,21.80
2014,06,26,12,06,21.80
2014,06,26,12,07,21.80
2014,06,26,12,08,21.70
2014,06,26,12,09,21.60
2014,06,26,12,10,21.50
2014,06,26,12,11,21.40
2014,06,26,12,12,21.40
2014,06,26,12,13,21.40
2014,06,26,12,14,21.40
2014,06,26,12,15,21.50
2014,06,26,12,16,21.50
2014,06,26,12,17,21.40
2014,06,26,12,18,21.40
2014,06,26,12,19,21.40
2014,06,26,12,20,21.30
2014,06,26,12,21,21.30
2014,06,26,12,22,21.30
2014,06,26,12,23,21.30
2014,06,26,12,24,21.30
2014,06,26,12,25,21.30
2014,06,26,12,26,21.40
2014,06,26,12,27,21.40
2014,06,26,12,28,21.40
2014,06,26,12,29,21.50
2014,06,26,12,30,21.50
2014,06,26,12,31,21.40
2014,06,26,12,32,21.40
2014,06,26,12,33,21.40
2014,06,26,12,34,21.40
2014,06,26,12,35,21.40
2014,06,26,12,36,21.40
2014,06,26,12,37,21.40
2014,06,26,12,38,21.50
2014,06,26,12,39,21.60
2014,06,26,12,40,21.60
2014,06,26,12,41,21.70
2014,06,26,12,42,21.70
2014,06,26,12,43,21.70
2014,06,26,12,44,21.70
2014,06,26,12,45,21.70
2014,06,26,12,46,21.70
2014,06,26,12,47,21.70
2014,06,26,12,48,21.60
2014,06,26,12,49,21.70
2014,06,26,12,50,21.70
2014,06,26,12,51,21.70
2014,06,26,12,52,21.80
2014,06,26,12,53,21.80
2014,06,26,12,54,21.80
2014,06,26,12,55,21.80
2014,06,26,12,56,21.80
2014,06,26,12,57,21.80
2014,06,26,12,58,21.80
2014,06,26,12,59,21.90
2014,06,26,13,00,21.90
2014,06,26,13,01,21.90
2014,06,26,13,02,21.90
2014,06,26,13,03,21.90
2014,06,26,13,04,21.90
2014,06,26,13,05,21.90
2014,06,26,13,06,21.80
2014,06,26,13,07,21.80
2014,06,26,13,08,21.90
2014,06,26,13,09,21.90
2014,06,26,13,10,22.00
2014,06,26,13,11,22.00
2014,06,26,13,12,22.10
2014,06,26,13,13,22.10
2014,06,26,13,14,22.20
2014,06,26,13,15,22.30
2014,06,26,13,16,22.60
2014,06,26,13,17,22.80
2014,06,26,13,18,23.00
2014,06,26,13,19,23.10
2014,06,26,13,20,23.00
2014,06,26,13,21,22.90
2014,06,26,13,22,22.80
2014,06,26,13,23,22.70
2014,06,26,13,24,22.60
2014,06,26,13,25,22.60
2014,06,26,13,26,22.70
2014,06,26,13,27,22.80
2014,06,26,13,28,22.90
2014,06,26,13,29,23.10
2014,06,26,13,30,23.30
2014,06,26,13,31,23.40
2014,06,26,13,32,23.50
2014,06,26,13,33,23.60
2014,06,26,13,34,23.60
2014,06,26,13,35,23.40
2014,06,26,13,36,23.40
2014,06,26,13,37,23.40
2014,06,26,13,38,23.50
2014,06,26,13,39,23.60
2014,06,26,13,40,23.60
2014,06,26,13,41,23.60
2014,06,26,13,42,23.60
2014,06,26,13,43,23.60
2014,06,26,13,44,23.40
2014,06,26,13,45,23.40
2014,06,26,13,46,23.40
2014,06,26,13,47,23.40
2014,06,26,13,48,23.40
2014,06,26,13,49,23.30
2014,06,26,13,50,23.30
2014,06,26,13,51,23.30
2014,06,26,13,52,23.30
2014,06,26,13,53,23.30
2014,06,26,13,54,23.40
2014,06,26,13,55,23.30
2014,06,26,13,56,23.30
2014,06,26,13,57,23.30
2014,06,26,13,58,23.20
2014,06,26,13,59,23.20
2014,06,26,14,00,23.20
2014,06,26,14,01,23.20
2014,06,26,14,02,23.20
2014,06,26,14,03,23.10
2014,06,26,14,04,23.10
2014,06,26,14,05,23.20
2014,06,26,14,06,23.20
2014,06,26,14,07,23.20
2014,06,26,14,08,23.20
2014,06,26,14,09,23.20
2014,06,26,14,18,22.90
2014,06,26,15,12,22.20
2014,06,26,15,15,21.90
2014,06,26,15,21,22.00
2014,06,26,15,22,22.00
2014,06,26,15,23,22.10
2014,06,26,15,24,22.00
2014,06,26,15,25,21.90
2014,06,26,15,26,21.90
2014,06,26,15,27,21.80
2014,06,26,15,28,21.80
2014,06,26,15,29,21.80
2014,06,26,15,30,21.80
2014,06,26,15,31,21.90
2014,06,26,15,32,21.90
2014,06,26,15,33,21.90
2014,06,26,15,34,21.90
2014,06,26,15,35,22.00
2014,06,26,15,36,22.00
2014,06,26,15,37,22.00
2014,06,26,15,38,22.00
2014,06,26,15,39,21.90
2014,06,26,15,40,21.90
2014,06,26,15,41,21.80
2014,06,26,15,42,21.80
2014,06,26,15,43,21.70
2014,06,26,15,44,21.70
2014,06,26,15,45,21.70
2014,06,26,15,46,21.70
2014,06,26,15,47,21.70
2014,06,26,15,48,21.70
2014,06,26,15,49,21.70
2014,06,26,15,50,21.70
2014,06,26,15,51,21.70
2014,06,26,15,52,21.60
2014,06,26,15,53,21.50
2014,06,26,15,54,21.40
2014,06,26,15,55,21.40
2014,06,26,15,56,21.60
2014,06,26,15,57,21.60
2014,06,26,15,58,21.60
2014,06,26,15,59,21.50
2014,06,26,16,00,21.40
2014,06,26,16,01,21.40
2014,06,26,16,02,21.50
2014,06,26,16,03,21.60
2014,06,26,16,04,21.60
2014,06,26,16,05,21.60
2014,06,26,16,06,21.60
2014,06,26,16,07,21.60
2014,06,26,16,08,21.60
2014,06,26,16,09,21.60
2014,06,26,16,10,21.60
2014,06,26,16,11,21.60
2014,06,26,16,12,21.60
2014,06,26,16,13,21.60
2014,06,26,16,14,21.70
2014,06,26,16,15,21.60
2014,06,26,16,16,21.50
2014,06,26,16,17,21.40
2014,06,26,16,18,21.30
2014,06,26,16,19,21.40
2014,06,26,16,20,21.40
2014,06,26,16,21,21.40
2014,06,26,16,22,21.40
2014,06,26,16,23,21.30
2014,06,26,16,24,21.40
2014,06,26,16,25,21.40
2014,06,26,16,26,21.40
2014,06,26,16,27,21.40
2014,06,26,16,28,21.40
2014,06,26,16,29,21.30
2014,06,26,16,30,21.20
2014,06,26,16,31,21.10
2014,06,26,16,32,21.00
2014,06,26,16,33,20.90
2014,06,26,16,34,20.80
2014,06,26,16,35,20.80
2014,06,26,16,36,20.80
2014,06,26,16,37,20.90
2014,06,26,16,38,20.90
2014,06,26,16,39,20.90
2014,06,26,16,40,21.00
2014,06,26,16,41,21.10
2014,06,26,16,42,21.20
2014,06,26,16,43,21.20
2014,06,26,16,44,21.20
2014,06,26,16,45,21.20
2014,06,26,16,46,21.20
2014,06,26,16,47,21.20
2014,06,26,16,48,21.10
2014,06,26,16,49,21.00
2014,06,26,16,50,20.90
2014,06,26,16,51,20.90
2014,06,26,16,52,20.80
2014,06,26,16,53,20.80
2014,06,26,16,54,20.80
2014,06,26,16,55,20.80
2014,06,26,16,56,20.80
2014,06,26,16,57,20.80
2014,06,26,16,58,20.80
2014,06,26,16,59,20.80
2014,06,26,17,00,20.80
2014,06,26,17,01,20.80
2014,06,26,17,02,20.80
2014,06,26,17,03,20.90
2014,06,26,17,04,20.90
2014,06,26,17,05,20.90
2014,06,26,17,06,20.90
2014,06,26,17,07,20.90
2014,06,26,17,08,20.90
2014,06,26,17,09,20.90
2014,06,26,17,10,20.90
2014,06,26,17,11,20.90
2014,06,26,17,12,20.90
2014,06,26,17,13,20.90
2014,06,26,17,14,20.90
2014,06,26,17,15,20.90
2014,06,26,17,16,20.90
2014,06,26,17,17,20.90
2014,06,26,17,18,20.90
2014,06,26,17,19,20.90
2014,06,26,17,20,20.90
2014,06,26,17,21,20.90
2014,06,26,17,22,20.90
2014,06,26,17,23,20.90
2014,06,26,17,24,20.90
2014,06,26,17,25,20.80
2014,06,26,17,26,20.80
2014,06,26,17,27,20.80
2014,06,26,17,28,20.70
2014,06,26,17,29,20.70
2014,06,26,17,30,20.60
2014,06,26,17,31,20.60
2014,06,26,17,32,20.60
2014,06,26,17,33,20.40
2014,06,26,17,35,20.30
2014,06,26,17,36,20.30
2014,06,26,17,37,20.20
2014,06,26,17,38,20.20
2014,06,26,17,39,20.10
2014,06,26,17,40,20.10
2014,06,26,17,41,20.10
2014,06,26,17,42,20.10
2014,06,26,17,43,20.10
2014,06,26,17,44,20.10
2014,06,26,17,45,20.00
2014,06,26,17,46,20.00
2014,06,26,17,47,20.00
2014,06,26,17,48,20.00
2014,06,26,17,49,20.00
2014,06,26,17,50,20.00
2014,06,26,17,51,20.10
2014,06,26,17,52,20.20
2014,06,26,17,53,20.20
2014,06,26,17,54,20.20
2014,06,26,17,55,20.20
2014,06,26,17,56,20.20
2014,06,26,17,57,20.20
2014,06,26,17,58,20.20
2014,06,26,17,59,20.10
2014,06,26,18,00,20.10
2014,06,26,18,01,20.10
2014,06,26,18,02,20.00
2014,06,26,18,03,19.90
2014,06,26,18,04,19.80
2014,06,26,18,05,19.70
2014,06,26,18,06,19.60
2014,06,26,18,07,19.60
2014,06,26,18,08,19.60
2014,06,26,18,09,19.60
2014,06,26,18,10,19.50
2014,06,26,18,11,19.40
2014,06,26,18,12,19.30
2014,06,26,18,13,19.30
2014,06,26,18,14,19.20
2014,06,26,18,15,19.20
2014,06,26,18,16,19.20
2014,06,26,18,17,19.20
2014,06,26,18,18,19.10
2014,06,26,18,19,19.00
2014,06,26,18,20,18.90
2014,06,26,18,21,18.90
2014,06,26,18,22,18.80
2014,06,26,18,23,18.80
2014,06,26,18,24,18.70
2014,06,26,18,25,18.70
2014,06,26,18,26,18.60
2014,06,26,18,27,18.50
2014,06,26,18,28,18.50
2014,06,26,18,29,18.40
2014,06,26,18,30,18.40
2014,06,26,18,31,18.40
2014,06,26,18,32,18.30
2014,06,26,18,33,18.40
2014,06,26,18,34,18.40
2014,06,26,18,35,18.30
2014,06,26,18,36,18.30
2014,06,26,18,37,18.30
2014,06,26,18,38,18.30
2014,06,26,18,39,18.30
2014,06,26,18,40,18.20
2014,06,26,18,41,18.20
2014,06,26,18,42,18.20
2014,06,26,18,43,18.20
2014,06,26,18,44,18.10
2014,06,26,18,45,18.10
2014,06,26,18,46,18.10
2014,06,26,18,47,18.10
2014,06,26,18,48,18.00
2014,06,26,18,49,18.00
2014,06,26,18,50,18.00
2014,06,26,18,51,17.90
2014,06,26,18,52,18.00
2014,06,26,18,53,18.00
2014,06,26,18,54,18.00
2014,06,26,18,55,17.90
2014,06,26,18,56,17.90
2014,06,26,18,57,17.90
2014,06,26,18,58,17.80
2014,06,26,18,59,17.80
2014,06,26,19,00,17.80
2014,06,26,19,01,17.80